When you browse on this site, cookies collect data to enhance your experience and personalize the content and advertising you see.
Visit our Privacy Policy to learn more. By continuing to use the site, you agree to this use of cookies and data.
  • en Suisse
  • Liste des pays
  • À 7 jours
  • Température de l'eau
  • Carte satellitaire
  • Carte météo
  • Widgets météo
  • user-avatar
    Se connecter

    Météo par heure à Kanton

    Ce jour, 16 Février, Samedi

    Heure Température Précipitation Vent Pression Humidité
    00:00 -10°C° 0.2 mm 5 m/s 740 mmHg 91%
    01:00 -10°C° 0.2 mm 5 m/s 739 mmHg 91%
    02:00 -10°C° 0.3 mm 5 m/s 738 mmHg 91%
    03:00 -9°C° 0.3 mm 4 m/s 738 mmHg 91%
    04:00 -9°C° 0 mm 4 m/s 737 mmHg 91%
    05:00 -9°C° 0.1 mm 4 m/s 736 mmHg 91%
    06:00 -9°C° 0.1 mm 4 m/s 736 mmHg 92%
    07:00 -10°C° 0.1 mm 4 m/s 736 mmHg 92%
    08:00 -9°C° 0.2 mm 4 m/s 735 mmHg 92%
    09:00 -9°C° 0.2 mm 4 m/s 735 mmHg 92%
    10:00 -9°C° 0 mm 4 m/s 735 mmHg 92%
    11:00 -8°C° 0.2 mm 4 m/s 735 mmHg 92%
    12:00 -7°C° 0.2 mm 4 m/s 734 mmHg 92%
    13:00 -7°C° 0.2 mm 4 m/s 734 mmHg 92%
    14:00 -5°C° 0.3 mm 4 m/s 734 mmHg 92%
    15:00 -5°C° 0.3 mm 4 m/s 735 mmHg 93%
    16:00 -4°C° 0.3 mm 4 m/s 735 mmHg 93%
    17:00 -4°C° 0.3 mm 4 m/s 735 mmHg 94%
    18:00 -4°C° 0.3 mm 3 m/s 735 mmHg 95%
    19:00 -3°C° 0.3 mm 2 m/s 735 mmHg 95%
    20:00 -4°C° 0.2 mm 2 m/s 736 mmHg 96%
    21:00 -4°C° 0.2 mm 2 m/s 736 mmHg 97%
    22:00 -3°C° 0.2 mm 1 m/s 736 mmHg 97%
    23:00 -3°C° 0.1 mm 1 m/s 736 mmHg 97%

    Demain, 17 Février, Dimanche

    Heure Température Précipitation Vent Pression Humidité
    00:00 -2°C° 0.1 mm 1 m/s 736 mmHg 98%
    01:00 -2°C° 0.1 mm 1 m/s 736 mmHg 98%
    02:00 -2°C° 0.1 mm 1 m/s 736 mmHg 98%
    03:00 -4°C° 0.1 mm 2 m/s 736 mmHg 97%
    04:00 -4°C° 0.1 mm 2 m/s 737 mmHg 97%
    05:00 -4°C° 0.1 mm 2 m/s 736 mmHg 97%
    06:00 -5°C° 0.1 mm 2 m/s 736 mmHg 97%
    07:00 -3°C° 0.1 mm 1 m/s 736 mmHg 97%
    08:00 -3°C° 0.1 mm 1 m/s 736 mmHg 96%
    09:00 -3°C° 0.1 mm 1 m/s 736 mmHg 96%
    10:00 -2°C° 0.1 mm 1 m/s 736 mmHg 95%
    11:00 -4°C° 0 mm 2 m/s 735 mmHg 93%
    12:00 -3°C° 0 mm 2 m/s 735 mmHg 91%
    13:00 -4°C° 0 mm 3 m/s 734 mmHg 89%
    14:00 -4°C° 0.1 mm 3 m/s 734 mmHg 89%
    15:00 -2°C° 0.1 mm 3 m/s 733 mmHg 90%
    16:00 -2°C° 0.1 mm 3 m/s 733 mmHg 91%
    17:00 -2°C° 0.1 mm 3 m/s 732 mmHg 91%
    18:00 -3°C° 0.1 mm 4 m/s 732 mmHg 91%
    19:00 -4°C° 0.1 mm 4 m/s 731 mmHg 92%
    20:00 -4°C° 0.1 mm 4 m/s 731 mmHg 91%
    21:00 -4°C° 0.1 mm 4 m/s 730 mmHg 91%
    22:00 -4°C° 0.1 mm 4 m/s 729 mmHg 91%
    23:00 -4°C° 0.3 mm 4 m/s 729 mmHg 91%

    Après-demain, 18 Février, Lundi

    Heure Température Précipitation Vent Pression Humidité
    00:00 -4°C° 0.3 mm 4 m/s 728 mmHg 91%
    01:00 -4°C° 0.3 mm 4 m/s 728 mmHg 91%
    02:00 -5°C° 0.2 mm 4 m/s 727 mmHg 91%
    03:00 -5°C° 0.2 mm 4 m/s 727 mmHg 90%
    04:00 -5°C° 0.2 mm 4 m/s 726 mmHg 90%
    05:00 -5°C° 0.2 mm 4 m/s 726 mmHg 90%
    06:00 -5°C° 0.2 mm 4 m/s 726 mmHg 91%
    07:00 -7°C° 0.2 mm 4 m/s 725 mmHg 91%
    08:00 -5°C° 0.2 mm 4 m/s 725 mmHg 91%
    09:00 -5°C° 0.2 mm 3 m/s 725 mmHg 91%
    10:00 -5°C° 0.2 mm 3 m/s 725 mmHg 90%
    11:00 -4°C° 0.2 mm 3 m/s 725 mmHg 89%
    12:00 -4°C° 0.2 mm 3 m/s 725 mmHg 88%
    13:00 -2°C° 0.2 mm 2 m/s 725 mmHg 87%
    14:00 -2°C° 0.2 mm 2 m/s 726 mmHg 88%
    15:00 0°C° 0.2 mm 1 m/s 726 mmHg 89%
    16:00 0°C° 0.2 mm 1 m/s 726 mmHg 90%
    17:00 0°C° 0.1 mm 1 m/s 727 mmHg 92%
    18:00 -1°C° 0.1 mm 1 m/s 728 mmHg 93%
    19:00 -4°C° 0.1 mm 2 m/s 728 mmHg 95%
    20:00 -5°C° 0.1 mm 2 m/s 729 mmHg 94%
    21:00 -3°C° 0.1 mm 1 m/s 729 mmHg 94%
    22:00 -4°C° 0.1 mm 1 m/s 730 mmHg 93%
    23:00 -7°C° 0 mm 2 m/s 731 mmHg 94%

    19 Février, Mardi

    Heure Température Précipitation Vent Pression Humidité
    00:00 -8°C° 0 mm 2 m/s 731 mmHg 94%
    01:00 -8°C° 0 mm 2 m/s 732 mmHg 94%
    02:00 -9°C° 0.1 mm 3 m/s 733 mmHg 93%
    03:00 -9°C° 0.1 mm 4 m/s 734 mmHg 93%
    04:00 -8°C° 0.1 mm 4 m/s 735 mmHg 92%
    05:00 -10°C° 0.1 mm 4 m/s 736 mmHg 92%
    06:00 -11°C° 0.1 mm 4 m/s 737 mmHg 91%
    07:00 -14°C° 0.1 mm 4 m/s 738 mmHg 90%
    08:00 -14°C° 0 mm 4 m/s 738 mmHg 90%
    09:00 -15°C° 0 mm 4 m/s 739 mmHg 90%
    10:00 -15°C° 0 mm 4 m/s 740 mmHg 89%
    11:00 -14°C° 0 mm 4 m/s 741 mmHg 89%
    12:00 -12°C° 0 mm 4 m/s 741 mmHg 88%
    13:00 -10°C° 0 mm 3 m/s 742 mmHg 87%
    14:00 -12°C° 0 mm 3 m/s 742 mmHg 86%
    15:00 -12°C° 0 mm 3 m/s 743 mmHg 86%
    16:00 -10°C° 0 mm 2 m/s 743 mmHg 85%
    17:00 -13°C° 0 mm 2 m/s 744 mmHg 87%
    18:00 -12°C° 0 mm 1 m/s 744 mmHg 90%
    19:00 -14°C° 0 mm 1 m/s 745 mmHg 92%
    20:00 -13°C° 0 mm 1 m/s 745 mmHg 92%
    21:00 -13°C° 0 mm 1 m/s 745 mmHg 92%
    22:00 -12°C° 0 mm 1 m/s 746 mmHg 92%
    23:00 -14°C° 0 mm 2 m/s 745 mmHg 91%

    20 Février, Mercredi

    Heure Température Précipitation Vent Pression Humidité
    00:00 -14°C° 0 mm 2 m/s 745 mmHg 90%
    01:00 -15°C° 0 mm 3 m/s 745 mmHg 90%
    02:00 -15°C° 0.1 mm 3 m/s 745 mmHg 91%
    03:00 -15°C° 0.1 mm 3 m/s 745 mmHg 92%
    04:00 -16°C° 0.1 mm 4 m/s 745 mmHg 94%
    05:00 -16°C° 0 mm 4 m/s 745 mmHg 94%
    06:00 -14°C° 0 mm 3 m/s 745 mmHg 95%
    07:00 -14°C° 0 mm 3 m/s 745 mmHg 95%
    08:00 -13°C° 0 mm 3 m/s 745 mmHg 95%
    09:00 -14°C° 0 mm 4 m/s 746 mmHg 94%
    10:00 -12°C° 0 mm 4 m/s 746 mmHg 94%
    11:00 -11°C° 0 mm 4 m/s 746 mmHg 93%
    12:00 -10°C° 0 mm 4 m/s 745 mmHg 92%
    13:00 -10°C° 0 mm 5 m/s 745 mmHg 91%
    14:00 -10°C° 0 mm 5 m/s 745 mmHg 91%
    15:00 -10°C° 0 mm 5 m/s 744 mmHg 92%
    16:00 -10°C° 0 mm 5 m/s 744 mmHg 92%
    17:00 -10°C° 0.1 mm 5 m/s 744 mmHg 92%
    18:00 -10°C° 0.1 mm 6 m/s 744 mmHg 92%
    19:00 -10°C° 0.1 mm 6 m/s 744 mmHg 91%
    20:00 -10°C° 0 mm 6 m/s 743 mmHg 91%
    21:00 -11°C° 0 mm 6 m/s 743 mmHg 91%
    22:00 -11°C° 0 mm 6 m/s 743 mmHg 91%
    23:00 -11°C° 0 mm 6 m/s 743 mmHg 91%

    21 Février, Jeudi

    Heure Température Précipitation Vent Pression Humidité
    00:00 -11°C° 0 mm 6 m/s 743 mmHg 91%
    01:00 -12°C° 0 mm 6 m/s 742 mmHg 91%
    02:00 -12°C° 0 mm 6 m/s 742 mmHg 90%
    03:00 -12°C° 0 mm 6 m/s 742 mmHg 90%
    04:00 -12°C° 0 mm 6 m/s 742 mmHg 90%
    05:00 -12°C° 0.1 mm 6 m/s 742 mmHg 90%
    06:00 -12°C° 0.1 mm 6 m/s 742 mmHg 90%
    07:00 -14°C° 0.1 mm 6 m/s 742 mmHg 90%
    08:00 -12°C° 0.1 mm 6 m/s 742 mmHg 90%
    09:00 -12°C° 0.1 mm 6 m/s 742 mmHg 91%
    10:00 -12°C° 0.1 mm 6 m/s 742 mmHg 91%
    11:00 -11°C° 0.2 mm 6 m/s 742 mmHg 90%
    12:00 -11°C° 0.2 mm 6 m/s 742 mmHg 89%
    13:00 -10°C° 0.2 mm 6 m/s 742 mmHg 89%
    14:00 -10°C° 0.2 mm 6 m/s 741 mmHg 89%
    15:00 -10°C° 0.2 mm 6 m/s 741 mmHg 88%
    16:00 -10°C° 0.2 mm 6 m/s 741 mmHg 88%
    17:00 -10°C° 0.2 mm 6 m/s 741 mmHg 89%
    18:00 -10°C° 0.2 mm 6 m/s 741 mmHg 89%
    19:00 -10°C° 0.2 mm 6 m/s 741 mmHg 90%
    20:00 -10°C° 0.2 mm 6 m/s 741 mmHg 90%
    21:00 -9°C° 0.2 mm 6 m/s 741 mmHg 90%
    22:00 -9°C° 0.2 mm 6 m/s 741 mmHg 90%
    23:00 -8°C° 0.2 mm 5 m/s 741 mmHg 90%
    Voir plus